Regional Weather Roundup
Issued by NWS Pendleton, OR

Home | Current Version | Previous Version | Text Only | Print | Product List | Glossary On
Versions: 1 2 3 4 5 6 7 8 9 10 11 12 13 14 15 16 17 18 19 20 21 22 23 24 25 26 27 28 29 30 31 32 33 34 35 36 37 38 39 40 41 42 43 44 45 46 47 48 49 50
000
ASUS46 KPDT 231510
RWRPDT
PENDLETON REGIONAL WEATHER ROUNDUP
NATIONAL WEATHER SERVICE PENDLETON OREGON
800 AM PDT TUE SEP 23 2014

NOTE: FAIR INDICATES FEW OR NO CLOUDS BELOW 12,000 FEET WITH NO
SIGNIFICANT WEATHER AND/OR OBSTRUCTIONS TO VISIBILITY.

# INDICATES UNOFFICIAL STATION AND DATA

WAZ520-231610-
EAST SLOPES OF WASHINGTON CASCADES

CITY            SKY/WX      TMP DP  RH  WIND    PRES   REMARKS
#BUMPING DAM    N/A         47  N/A N/A NE6     N/A
#CLE ELUM HS    N/A         51  48  89  CALM    29.86S
#CLE ELUM 2NW   N/A         51  47  86  CALM    N/A
#CLE ELUM LAKE  N/A         54  48  80  CALM    29.78F
#CLIFFDEL 2NW   N/A         49  45  86  CALM    N/A
#EASTON DOT     N/A         51  48  89  CALM    N/A
#GLENWOOD       N/A         50  47  89  CALM    29.83S
#MANASTASH CYN  N/A         54  42  64  CALM    29.89F
#NELSON         N/A         50  48  93  CALM    29.84S
#NELSON 3SW     N/A         53  47  80  CALM    30.01S
#NILE           N/A         54  47  77  W2      29.11F
#PEOH POINT     N/A         58  42  55  E2      N/A
#SNOWDEN        N/A          0  -78  1  CALM    N/A
#TEANAWAY 4NE   N/A         50  48  93  CALM    N/A
#TROUT LAKE 1NE N/A         53  48  83  CALM    29.82S
$$

WAZ521-231610-
SIMCOE HIGHLANDS

CITY            SKY/WX      TMP DP  RH  WIND    PRES   REMARKS
#BICKLETON HS   N/A         61  41  48  CALM    29.97F
#SATUS PASS DOT N/A         59  40  49  CALM    N/A
#CENTERVILLE 4W N/A         58  46  64  NW1     29.64S
#GOLDENDALE     N/A         56  45  66  CALM    N/A
#GOLDENDALE 1NE N/A         58  39  49  N2      N/A
#GOLDENDALE 1S  N/A         55  45  69  CALM    29.86R
#GOLDENDALE 5WNWN/A         57  46  67  CALM    29.80S
#GOODNOE HILLS  N/A         62  52  70  W9      29.81R
#LYLE 6NE       N/A         58  50  75  CALM    29.80S
$$

WAZ026-231610-
KITTITAS VALLEY

CITY            SKY/WX      TMP DP  RH  WIND    PRES   REMARKS
ELLENSBURG AP   CLOUDY      58  51  77  CALM    29.89S
#ELLENSBURG CWU N/A         54  50  86  CALM    29.80S
#ELLENSBURG 3NE N/A         54  51  90  E2      29.90S
#ELLENSBURG     N/A         58  55  90  CALM    N/A
#KITTITAS 3S    N/A         51  50  96  CALM    29.82S
#RYEGRASS DOT   N/A         57  52  83  W1      N/A
#THORP 6N       N/A         55  48  77  CALM    29.83S
$$

WAZ027-231610-
YAKIMA VALLEY

CITY            SKY/WX      TMP DP  RH  WIND    PRES   REMARKS
SUNNYSIDE AP    PTCLDY      57  54  90  CALM    29.84F
YAKIMA AIRPORT  CLOUDY      60  48  64  CALM    29.87R
YAKIMA-VAGABOND MOCLDY      63  46  54  SE2     29.88S
#COWICHE 1N     N/A         60  47  62  N2      30.04F
#DONALD 2NE     N/A         68  48  49  CALM    30.17F
#GRANDVIEW      N/A         61  51  70  CALM    29.82S
#MABTON         N/A         59  54  83  CALM    29.83S
#MOXEE 2E       N/A         60  41  49  NE1     29.82F
#NACHES 2SW     N/A         60  50  69  W1      29.88S
#TERRACE HTS    N/A         59  51  75  CALM    29.78S
#TOPPENISH      N/A         60  51  72  N1      29.74R
#WAPATO 4NE     N/A         68  48  49  CALM    30.17F
#W YAKIMA       N/A         61  49  65  CALM    29.80S
#WHITE SWAN 5E  N/A         59  52  78  NE1     29.82R
#WILEY CITY 3W  N/A         59  51  75  CALM    29.86F
$$

WAZ028-231610-
LOWER COLUMBIA BASIN...WASHINGTON

CITY            SKY/WX      TMP DP  RH  WIND    PRES   REMARKS
HANFORD         CLOUDY      64  54  70  N5      29.85S
PASCO           PTCLDY      62  61  97  CALM    29.84S
PROSSER AWOS    N/A         61  55  81  N1      29.86F
RICHLAND AWOS   MOCLDY      64  59  84  CALM    29.85R
#BASIN CITY 5SW N/A         62  57  84  CALM    29.84S
#BENTON CITY    N/A         65  54  68  CALM    29.72S
#CONNELL 5N     N/A         62  55  78  CALM    29.82F
#CONNELL 5NW    N/A         61  56  84  CALM    29.78S
#ELTOPIA        N/A         63  58  84  CALM    29.78F
#ELTOPIA 6NW    N/A         61  57  87  NE6     28.82F
#KENNEWICK 3S   N/A         64  57  78  CALM    29.80S
#PASCO-BROADMOORN/A         64  60  87  NE1     29.71S
#PATERSON       N/A         62  58  87  CALM    29.80S
#PROSSER        N/A         64  49  58  CALM    29.80S
#SAGEMOOR 2W    N/A         61  58  90  W1      29.67F
#TOUCHET 2S     N/A         58  56  93  CALM    29.80S
#WEST PASCO     N/A         63  57  81  CALM    29.81S
$$

WAZ029-231610-
FOOTHILLS OF THE BLUES...WASHINGTON

CITY            SKY/WX      TMP DP  RH  WIND    PRES   REMARKS
WALLA WALLA AP  MOCLDY      66  58  75  E6      29.86S
#DAYTON SCHOOL  N/A         66  53  63  E2      29.86F
#DELANEY DOT    N/A         61  57  87  CALM    N/A
#LOWDEN 2SE     N/A         60  59  96  CALM    29.81R
#PLEASANT VIEW 1N/A         62  56  81  N6      29.83F
#PRESCOTT       N/A         63  58  84  CALM    29.80R
#SUDBURY        N/A         64  N/A N/A CALM    N/A
#WHITMAN COLLEGEN/A         64  57  78  CALM    29.85R
#WAITSBURG 8N   N/A         67  46  47  CALM    29.79R
#WALLA WALLA 5E N/A         65  58  78  W7      N/A
#WALLA WALLA U  N/A         63  60  90  CALM    29.80S
#WHITMAN MISSIONN/A         60  58  93  CALM    29.82S
$$

WAZ030-231610-
BLUE MOUNTAINS...WASHINGTON

CITY            SKY/WX      TMP DP  RH  WIND    PRES   REMARKS
$$

ORZ009-041-WAZ024-231610-
COLUMBIA RIVER GORGE

CITY            SKY/WX      TMP DP  RH  WIND    PRES   REMARKS
HOOD RIVER AP   PTCLDY      55  52  90  S5      29.87R
THE DALLES AP   PTCLDY      60  53  78  CALM    29.85R
#ARLINGTON AIRPON/A         63  52  67  W6      29.98R
#ARLINGTON HS   N/A         64  50  60  CALM    29.73S
#MARYHILL       N/A         61  53  75  W3      N/A
#MARYHILL 2W    N/A         63  56  78  CALM    N/A
#MOSIER 1S      N/A         60  50  69  CALM    29.88S
#MURDOCK        N/A         63  55  75  NW7     29.86R
#RUFUS DOT      N/A         65  53  65  W7      N/A

$$

ORZ510-231610-
NORTH CENTRAL OREGON

CITY            SKY/WX      TMP DP  RH  WIND    PRES   REMARKS
#CHENOWITH 1W   N/A         58  49  72  NW6     N/A
#COW CYN RST AREN/A         61  43  51  S3      N/A
#DUFUR 9E       N/A         63  48  58  S1      29.86R
#GRASS VALLEY   N/A         57  46  67  CALM    N/A
#GRASS VALLEY 1SN/A         57  45  64  CALM    29.86R
#KENT DOT       N/A         59  43  55  SE2     N/A
#MAUPIN SCHOOL  N/A         61  48  62  CALM    28.75R
#MORO SCHOOL    N/A         58  52  80  CALM    29.90S
#SHANIKO 5WSW   N/A         60  48  64  S7      N/A
#SHANIKO 4NW    N/A         60  52  75  S7      29.94R
#TYGH VALLEY 2NEN/A         58  48  69  CALM    29.82R
#WAPANITIA AIRPON/A         57  46  67  CALM    29.82R
#WASCO DOT      N/A         57  51  80  NE2     N/A
#WASCO 5NE      N/A         60  49  67  SW2     29.82R
$$

ORZ511-231610-
CENTRAL OREGON

CITY            SKY/WX      TMP DP  RH  WIND    PRES   REMARKS
BEND AIRPORT    MOCLDY      57  46  67  S6      29.98R
MADRAS AIRPORT  MOCLDY      57  48  72  SW5     29.93R
REDMOND AIRPORT CLOUDY      60  47  62  SE9     29.94S
#BEND 6E        N/A         59  46  62  CALM    29.78R
#BEND 1SW       N/A         56  46  69  S1      N/A
#BEND-AWBREY    N/A         59  47  64  NE8     29.80R
#BEND-KIM LN    N/A         59  49  69  SW5     29.93S
#CROOKED RVR RANN/A         58  49  72  SW24G31 29.79R
#CULVER         N/A         60  51  72  S2      29.89R
#LAKE BILLY CHINN/A         58  26  29  CALM    29.97R
#POWELL BUTTE 3EN/A         62  49  62  E6      N/A
#POWELL BUTTE   N/A         65  46  50  S3      29.61R
#PRINEVILLE 3N  N/A         57  54  90  CALM    29.79R


ORZ509-231610-
EAST SLOPES OF OREGON CASCADES

CITY            SKY/WX      TMP DP  RH  WIND    PRES   REMARKS
#BLUE BOX PASS  N/A         57   4  11  S3      N/A
#CAMP SHERMAN   N/A         48  39  71  CALM    29.86R
#LA PINE DOT    N/A         51  43  74  CALM    N/A
#LA PINE 4NW    N/A         48  42  80  CALM    29.88S
#LAVA BUTTE DOT N/A         51  44  77  CALM    N/A
#SISTERS AIRPOR N/A         52  47  83  CALM    29.91S
#SISTERS ODOT   N/A         54  N/A N/A CALM    N/A
#SISTERS 3N     N/A         53  39  59  CALM    N/A
#SUNRIVER       N/A         50  46  86  CALM    29.73R
#SUNRIVER AP    N/A         48  45  89  CALM    29.80R
#SUTTLE LK DOT  N/A         47  40  76  S8      N/A
#TUMALO 3W      N/A         58  45  62  SE2     29.68S
#WANOGA BUTTE D N/A         51  43  74  W7      N/A

$$

ORZ044-231610-
LOWER COLUMBIA BASIN...OREGON

CITY            SKY/WX      TMP DP  RH  WIND    PRES   REMARKS
HERMISTON       MOCLDY      62  57  84  CALM    29.84S
#BOARDMAN SCHOOLN/A         60  53  78  CALM    29.82F
#BOARDMAN 3W    N/A         61  57  87  SW1     29.56S
#BOARDMAN 8SW   N/A         62  54  75  W1      29.81F
#ECHO 8SW       N/A         61  53  75  SW1     29.82S
#IONE SCHOOL    N/A         60  48  64  E1      29.85S
#IRRIGON 4NW    N/A         58  56  93  S2      N/A
#UMATILLA SCHOOLN/A         59  59  100 CALM    29.89F
#UMATILLA       N/A         62  55  78  CALM    29.81R
$$

ORZ507-231610-
NORTHERN FOOTHILLS OF THE BLUES

CITY            SKY/WX      TMP DP  RH  WIND    PRES   REMARKS
PENDLETON AIRPT MOCLDY      61  57  87  CALM    29.86S
#ADAMS 3WNW     N/A         61  57  87  CALM    29.80S
#ATHENA         N/A         67  56  68  CALM    29.82S
#HELIX SCHOOL   N/A         60  57  90  CALM    29.80S
#HELIX 3N       N/A         62  56  81  SE8     29.86R
#HOLDMAN 5SE    N/A         61  57  87  CALM    29.87S
#HOLDMAN 6E     N/A         62  56  81  CALM    29.62S
#M-F GROVE ELEM N/A         65  55  70  CALM    29.84S
#M-FREEWATER 5SEN/A         73  56  55  E10     29.84F
#PENDLETON DNTN N/A         60  59  96  CALM    29.88S
#PDT AQUATIC CTRN/A         62  55  78  CALM    29.88R
#PENDLETON 5NE  N/A         60  57  90  CALM    29.83S
#PDT SUNRIDGE   N/A         58  56  93  CALM    29.87S
#PENDLETON 7NW  N/A         61  56  84  SE3     25.43S
#PILOT ROCK     N/A         61  54  78  CALM    29.90R
#TUTUILLA       N/A         59  56  90  CALM    29.83S
#UMAPINE 2E     N/A         61  59  93  CALM    29.81S

$$

ORZ508-231610-
SOUTHERN FOOTHILLS OF THE BLUES

CITY            SKY/WX      TMP DP  RH  WIND    PRES   REMARKS
LEXINGTON       CLOUDY      64  52  65  SE6     29.88S
#AJAX           N/A         61  43  51  CALM    29.84R
#CONDON SCHOOL  N/A         59  54  83  CALM    29.89R
#CONDON 5W      N/A         59  52  78  SE7     29.91R
#FOSSIL SCHOOL  N/A         59  55  87  CALM    29.90R
#HEPPNER 4NE    N/A         61  50  67  CALM    29.78S
#LEXINGTON 2SE  N/A         62  54  75  SE2     29.83S
#MIKKALO        N/A         62  47  58  CALM    29.88S
#OLEX 4N        N/A         62  51  67  W5      29.86R
#RUGGS 5NE      N/A         62  52  70  CALM    30.07R
#RUGGS 2SW      N/A         64  53  67  S2      29.80S

$$

ORZ502-503-231610-
BLUE MOUNTAINS

CITY            SKY/WX      TMP DP  RH  WIND    PRES   REMARKS
MEACHAM         MOCLDY      58  55  90  CALM    29.98S
#BATTLE MTN DOT N/A         54  54  100 S7      N/A
#HARDMAN 10S    N/A         54  52  93  SE3     30.03F
#HEPPNER 15SE   N/A         63  50  62  S2      29.86F
#LADD CYN SMT   N/A         55  51  86  CALM    N/A
#LADD CREEK ODOTN/A         55  55  100 SE2     N/A
#N POWDER DOT   N/A         53  53  100 SE3     N/A
#PIKES PEAK     N/A         69  50  51  S22G35  27.99S
#TOLLGATE       N/A         56  50  80  SW2     29.97S
#TROY SCHOOL    N/A         59  57  93  CALM    29.76R
#UKIAH          N/A         52  51  96  CALM    29.88S
#WESTON 4E      N/A         63  54  72  E10     29.74S
$$

ORZ505-231610-
JOHN DAY BASIN

CITY            SKY/WX      TMP DP  RH  WIND    PRES   REMARKS
JOHN DAY        CLOUDY      61  53  75  E3      30.00R
#JOHN DAY KJDY  N/A         59  53  80  N2      30.10F
#MONUMENT HS    N/A         58  55  90  CALM    29.94S
#MT. VERNON 5SE N/A         63  50  62  E5      29.96R
#WINLOCK        N/A         60  55  84  CALM    30.03R
$$

ORZ506-231610-
OCHOCO AND JOHN DAY HIGHLANDS

CITY            SKY/WX      TMP DP  RH  WIND    PRES   REMARKS
#BUCK CREEK DOT N/A         61  52  72  CALM    N/A
#HORSE RIDGE DO N/A         57  48  72  S3      N/A
#KEYES SMT DOT  N/A         59  -47  1  E5      N/A
#PAULINA SCHOOL N/A         52  50  93  CALM    30.01R
#PINE MTN OBS   N/A         51  43  74  SE18G32 N/A
#PRAIRIE CITY   N/A         53  53  100 CALM    29.99F
#SENECA 9NW     N/A         48  47  96  CALM    29.85S
$$

ORZ049-231610-
GRANDE RONDE VALLEY

CITY            SKY/WX      TMP DP  RH  WIND    PRES   REMARKS
LA GRANDE       CLOUDY      57  48  72  CALM    29.98S
#COVE           N/A         56  56  100 E3      29.92R
#COVE SCHOOL    N/A         56  54  93  CALM    29.97R
#COVE 6NW       N/A         54  52  93  CALM    29.91R
#ELGIN 3N       N/A         56  54  93  CALM    29.72R
#ELGIN 1E       N/A         55  51  86  CALM    N/A
#IMBLER SCHOOL  N/A         55  48  77  N9      29.95R
#LADD CYN DOT   N/A         57  55  93  SE2     N/A
#LA GRANDE ELEM N/A         58  55  90  CALM    29.97S
#UNION 1S       N/A         56  55  96  CALM    29.79R
$$

ORZ050-231610-
WALLOWA COUNTY

CITY            SKY/WX      TMP DP  RH  WIND    PRES   REMARKS
#ENTERPRISE AP  N/A         53  50  89  W3      29.94F
#ENTERPRISE HS  N/A         53  52  96  CALM    30.01F
#IMNAHA SCHOOL  N/A         60  57  90  CALM    29.93F
#IMNAHA 10S     N/A         57  54  90  CALM    29.98F
#JOSEPH 3N      N/A         52  50  93  CALM    30.02F
#JOSEPH 3W      N/A         55  52  90  S1      29.86S
#LOSTINE        N/A         53  52  96  CALM    29.68S
#MT HOWARD 8000 N/A         52  43  71  S12G24  30.22R
#PROMISE 1S     N/A         54  53  96  CALM    29.98S
#SHEEP RDG 7000 N/A         57  42  57  CALM    29.80S
#WALLOWA SCHOOL N/A         54  53  96  CALM    30.78S



$$



USA.gov is the U.S. government's official web portal to all federal, state and local government web resources and services.